WA7SB-7 Weather Reports


Display with metric or nautical units.
time (UTC)temp
F
wind
direction
speed
MPH
gust
MPH
rain 1hr
in
rain 24hr
in
rain mn
in
humidity
%
barometer
mb
20260904195519 63 297 1.0 5.0 0.00 1.91 0.99 87 1012.0
20260904195419 63 148 1.0 5.0 0.00 1.91 0.99 87 1012.1
20260904195022 63 316 1.0 3.0 0.00 1.91 0.99 90 1012.1
20260904194922 62 161 0.0 3.0 0.00 1.91 0.99 91 1012.0
20260904194516 62 70 1.0 2.0 0.00 1.91 0.99 90 1012.1
20260904194415 61 49 0.0 2.0 0.00 1.91 0.99 89 1012.1
20260904194021 61 149 1.0 2.0 0.00 1.91 0.99 90 1012.1
20260904193922 61 149 1.0 2.0 0.00 1.91 0.99 90 1012.1
20260904193530 61 253 0.0 1.0 0.00 1.91 0.99 89 1012.1
20260904193431 61 198 1.0 1.0 0.00 1.91 0.99 89 1012.1
20260904193015 61 20 0.0 1.0 0.00 1.91 0.99 91 1012.1
20260904192917 61 20 0.0 1.0 0.00 1.91 0.99 91 1012.1
20260904192521 61 297 0.0 1.0 0.00 1.91 0.99 92 1012.1
20260904192420 61 182 0.0 1.0 0.00 1.91 0.99 92 1012.2
20260904192026 61 181 0.0 1.0 0.00 1.91 0.99 91 1012.2
20260904191929 61 182 0.0 1.0 0.00 1.91 0.99 92 1012.1
20260904191516 60 60 0.0 1.0 0.00 1.91 0.99 91 1012.3
20260904191419 60 60 0.0 1.0 0.00 1.91 0.99 91 1012.3
20260904191024 60 290 0.0 1.0 0.00 1.91 0.99 92 1012.3
20260904190927 60 290 0.0 1.0 0.00 1.91 0.99 92 1012.2
20260904190516 60 236 0.0 1.0 0.00 1.91 0.99 92 1012.3
20260904190416 60 236 0.0 1.0 0.00 1.91 0.99 93 1012.2
20260904190027 60 309 0.0 2.0 0.00 1.92 0.99 93 1012.2
20260904185931 60 309 0.0 2.0 0.00 1.92 0.99 93 1012.2
20260904185532 60 240 1.0 2.0 0.00 1.92 0.99 92 1012.3
20260904185419 60 257 0.0 2.0 0.00 1.92 0.99 93 1012.3
20260904185021 59 91 0.0 2.0 0.00 1.92 0.99 93 1012.2
20260904184924 59 91 1.0 2.0 0.00 1.92 0.99 92 1012.2
20260904184526 59 83 0.0 3.0 0.00 1.92 0.99 92 1012.3
20260904184426 59 26 0.0 3.0 0.00 1.92 0.99 92 1012.2
20260904184032 59 314 0.0 3.0 0.00 1.92 0.99 92 1012.2
20260904183912 59 265 0.0 3.0 0.00 1.92 0.99 92 1012.2
20260904183517 60 276 0.0 2.0 0.00 1.92 0.99 92 1012.2
20260904183418 60 113 1.0 2.0 0.00 1.92 0.99 92 1012.2
20260904183024 60 217 1.0 2.0 0.00 1.92 0.99 92 1012.1
20260904182927 60 216 1.0 2.0 0.00 1.92 0.99 92 1012.1
20260904182531 60 340 0.0 1.0 0.00 1.92 0.99 92 1012.0
20260904182412 60 342 0.0 1.0 0.00 1.92 0.99 92 1012.0
20260904182017 60 127 0.0 1.0 0.00 1.92 0.99 93 1012.0
20260904181919 60 121 0.0 1.0 0.00 1.92 0.99 93 1012.0
20260904181523 60 271 0.0 2.0 0.00 1.92 0.99 92 1011.9
20260904181424 60 272 0.0 2.0 0.00 1.92 0.99 93 1012.0
20260904181029 60 302 0.0 2.0 0.00 1.92 0.99 93 1011.9
20260904180930 60 302 0.0 2.0 0.00 1.92 0.99 93 1011.8
20260904180517 60 221 0.0 1.0 0.00 1.92 0.99 94 1011.8
20260904180416 60 221 0.0 1.0 0.00 1.92 0.99 94 1011.8
20260904180033 60 221 0.0 1.0 0.00 2.07 0.99 93 1011.8
20260904175915 60 221 0.0 1.0 0.00 2.07 0.99 93 1011.8
20260904175521 60 257 0.0 1.0 0.00 2.07 0.99 93 1011.7
20260904175421 60 256 0.0 1.0 0.00 2.07 0.99 94 1011.8
20260904175026 60 256 0.0 1.0 0.00 2.07 0.99 94 1011.7
20260904174927 60 256 0.0 1.0 0.00 2.07 0.99 94 1011.7
20260904174532 60 266 0.0 1.0 0.00 2.07 0.99 93 1011.6
20260904174412 60 283 0.0 2.0 0.00 2.07 0.99 94 1011.5
20260904174017 60 231 0.0 2.0 0.00 2.07 0.99 94 1011.4
20260904173918 60 242 0.0 2.0 0.00 2.07 0.99 94 1011.4
20260904173522 60 278 0.0 1.0 0.00 2.07 0.99 94 1011.3
20260904173426 60 289 0.0 1.0 0.00 2.07 0.99 95 1011.3
20260904173028 60 289 0.0 1.0 0.00 2.07 0.99 95 1011.4
20260904172914 60 290 0.0 1.0 0.00 2.07 0.99 95 1011.3
20260904172517 60 272 0.0 1.0 0.00 2.07 0.99 96 1011.3
20260904172422 60 274 0.0 1.0 0.00 2.07 0.99 96 1011.3
20260904172025 60 273 0.0 2.0 0.00 2.07 0.99 96 1011.2
20260904171926 60 273 0.0 2.0 0.00 2.07 0.99 96 1011.3
20260904171533 59 267 0.0 2.0 0.00 2.07 0.99 95 1011.3
20260904171415 59 267 0.0 2.0 0.00 2.07 0.99 95 1011.2
20260904171020 59 278 0.0 3.0 0.00 2.07 0.99 96 1011.2
20260904170924 59 278 0.0 3.0 0.00 2.07 0.99 95 1011.2
20260904170531 59 278 0.0 3.0 0.00 2.07 0.99 95 1011.1
20260904170412 59 280 1.0 3.0 0.00 2.07 0.99 95 1011.1
20260904170027 59 183 0.0 1.0 0.00 2.11 0.99 96 1011.0
20260904165929 59 183 1.0 1.0 0.00 2.11 0.99 96 1011.0
20260904165533 60 136 0.0 1.0 0.00 2.11 0.99 96 1010.9
20260904165414 59 245 0.0 1.0 0.00 2.11 0.99 96 1010.9
20260904165016 59 214 0.0 3.0 0.00 2.11 0.99 97 1010.9
20260904164917 59 255 0.0 3.0 0.00 2.11 0.99 97 1010.8
20260904164521 58 140 0.0 3.0 0.00 2.11 0.99 96 1010.9
20260904164422 58 140 0.0 3.0 0.00 2.11 0.99 96 1010.9
20260904164026 58 46 1.0 3.0 0.01 2.11 0.99 96 1010.9
20260904163927 58 316 0.0 2.0 0.01 2.11 0.99 96 1010.9
20260904163531 58 173 0.0 1.0 0.01 2.11 0.99 96 1010.8
20260904163431 58 173 0.0 1.0 0.01 2.11 0.99 97 1010.8
20260904163033 58 172 0.0 1.0 0.01 2.11 0.99 96 1010.8
20260904162915 58 181 0.0 1.0 0.01 2.11 0.99 97 1010.8
20260904162518 57 231 0.0 1.0 0.03 2.11 0.99 97 1010.7
20260904162420 57 231 0.0 1.0 0.03 2.11 0.99 97 1010.7
20260904162023 57 231 0.0 1.0 0.03 2.11 0.99 97 1010.7
20260904161926 57 231 0.0 1.0 0.03 2.11 0.99 97 1010.7
20260904161528 57 231 0.0 2.0 0.04 2.11 0.99 96 1010.8
20260904161431 57 231 0.0 2.0 0.04 2.11 0.99 96 1010.7
20260904161028 57 230 0.0 2.0 0.05 2.11 0.99 97 1010.7
20260904160935 57 273 0.0 1.0 0.05 2.11 0.99 97 1010.7
20260904160533 57 297 0.0 1.0 0.06 2.11 0.99 97 1010.7
20260904160416 57 281 0.0 1.0 0.06 2.11 0.99 97 1010.8
20260904160020 57 281 0.0 1.0 0.07 2.11 0.99 97 1010.8
20260904155920 57 281 0.0 1.0 0.07 2.11 0.99 97 1010.8
20260904155520 56 281 0.0 1.0 0.07 2.11 0.99 97 1010.8
20260904155421 56 281 0.0 1.0 0.07 2.11 0.99 97 1010.8
20260904155025 56 281 0.0 1.0 0.08 2.11 0.99 97 1010.7
20260904154926 56 281 0.0 1.0 0.08 2.11 0.99 97 1010.8
20260904154525 56 281 0.0 1.0 0.09 2.11 0.99 97 1010.8
20260904154427 56 281 0.0 1.0 0.08 2.10 0.98 97 1010.8
20260904154028 56 273 0.0 0.0 0.08 2.10 0.98 97 1010.7
20260904153931 56 273 0.0 0.0 0.09 2.10 0.98 97 1010.7
20260904153533 56 273 0.0 1.0 0.10 2.10 0.98 97 1010.6
20260904153014 56 273 0.0 1.0 0.15 2.10 0.98 97 1010.5
20260904152934 56 273 0.0 1.0 0.15 2.10 0.98 97 1010.5
20260904152532 56 281 0.0 1.0 0.14 2.09 0.97 97 1010.6
20260904152413 56 282 0.0 1.0 0.13 2.08 0.96 97 1010.5
20260904152013 55 282 0.0 1.0 0.13 2.08 0.96 97 1010.4
20260904151916 55 282 0.0 1.0 0.13 2.08 0.96 97 1010.4
20260904151515 55 276 0.0 1.0 0.13 2.07 0.95 97 1010.4
20260904151417 55 276 0.0 1.0 0.13 2.07 0.95 97 1010.4
20260904151020 55 276 0.0 1.0 0.13 2.06 0.94 97 1010.4
20260904150922 55 276 0.0 1.0 0.13 2.06 0.94 97 1010.4
20260904150521 55 276 0.0 1.0 0.13 2.05 0.93 97 1010.2
20260904150425 55 276 0.0 1.0 0.14 2.05 0.93 97 1010.2
20260904150015 55 276 0.0 1.0 0.15 2.05 0.92 97 1010.1
20260904145922 55 276 0.0 1.0 0.15 2.05 0.92 97 1010.1
20260904145521 54 264 0.0 1.0 0.15 2.05 0.92 97 1010.1
20260904145422 54 264 0.0 1.0 0.15 2.05 0.92 97 1010.1
20260904145024 54 264 0.0 1.0 0.14 2.04 0.91 97 1010.0
20260904144926 54 264 0.0 1.0 0.14 2.04 0.91 97 1010.1
20260904144526 54 229 0.0 1.0 0.14 2.03 0.90 97 1010.0
20260904144429 54 229 0.0 1.0 0.14 2.03 0.90 97 1010.0
20260904144033 55 224 0.0 1.0 0.14 2.02 0.89 97 1010.0
20260904143915 54 224 0.0 1.0 0.15 2.02 0.89 97 1010.0
20260904143517 54 225 0.0 1.0 0.13 2.00 0.87 97 1010.0
20260904143417 54 225 0.0 1.0 0.12 1.99 0.86 97 1010.0
20260904143020 54 224 0.0 1.0 0.09 1.96 0.83 97 1010.0
20260904142923 54 224 0.0 1.0 0.09 1.96 0.83 97 1010.0
20260904142527 54 224 0.0 1.0 0.09 1.96 0.83 97 1010.0
20260904142430 54 224 0.0 1.0 0.09 1.96 0.83 97 1009.9
20260904142013 54 214 0.0 1.0 0.09 1.96 0.83 97 1009.9
20260904141917 54 214 1.0 3.0 0.09 1.96 0.83 97 1009.8
20260904141520 54 289 0.0 3.0 0.08 1.95 0.82 97 1009.7
20260904141424 54 289 0.0 3.0 0.08 1.95 0.82 97 1009.7
20260904141028 54 307 0.0 3.0 0.08 1.94 0.81 97 1009.6
20260904140931 54 301 0.0 1.0 0.08 1.94 0.81 97 1009.6
20260904140534 54 300 0.0 2.0 0.06 1.92 0.79 97 1009.4
20260904140415 54 300 0.0 2.0 0.06 1.92 0.79 97 1009.4
20260904140029 54 331 0.0 3.0 0.05 1.92 0.77 97 1009.3
20260904135912 54 331 0.0 3.0 0.05 1.92 0.77 97 1009.4
20260904135514 54 127 1.0 3.0 0.05 1.92 0.77 97 1009.1
20260904135418 54 279 0.0 3.0 0.06 1.92 0.77 97 1009.1
20260904135021 54 289 0.0 2.0 0.06 1.92 0.77 97 1009.1
20260904134925 54 289 0.0 2.0 0.05 1.91 0.76 97 1009.1
20260904134522 54 292 0.0 2.0 0.05 1.91 0.76 97 1009.1
20260904134429 54 271 0.0 2.0 0.05 1.90 0.75 97 1009.1
20260904134029 54 100 0.0 1.0 0.05 1.90 0.75 97 1009.0
20260904133934 54 100 0.0 1.0 0.05 1.90 0.75 97 1009.1
20260904133534 54 100 0.0 1.0 0.05 1.89 0.74 97 1009.0
20260904133420 54 100 0.0 1.0 0.05 1.89 0.74 97 1009.0
20260904133020 54 254 0.0 1.0 0.06 1.89 0.74 97 1008.9
20260904132923 54 255 0.0 1.0 0.06 1.89 0.74 97 1009.0
20260904132526 54 255 0.0 1.0 0.07 1.89 0.74 97 1009.0
20260904132430 54 255 0.0 1.0 0.07 1.89 0.74 97 1008.9
20260904132032 54 254 0.0 2.0 0.09 1.89 0.74 97 1008.9
20260904131915 54 255 0.0 2.0 0.11 1.89 0.74 97 1008.9
20260904131517 54 236 0.0 2.0 0.14 1.89 0.74 97 1008.8
20260904131419 54 278 0.0 1.0 0.14 1.89 0.74 97 1008.8
20260904131021 54 278 0.0 1.0 0.15 1.88 0.73 97 1008.7
20260904130924 54 278 0.0 1.0 0.15 1.88 0.73 97 1008.7
20260904130527 54 278 0.0 1.0 0.17 1.88 0.73 97 1008.7
20260904130429 54 287 0.0 1.0 0.17 1.88 0.73 97 1008.6
20260904130024 54 116 0.0 1.0 0.17 1.94 0.72 97 1008.5
20260904125926 54 116 0.0 1.0 0.17 1.94 0.72 97 1008.5
20260904125528 54 116 0.0 1.0 0.18 1.94 0.72 97 1008.5
20260904125429 54 116 0.0 1.0 0.17 1.93 0.71 97 1008.5
20260904125031 54 116 0.0 1.0 0.18 1.93 0.71 97 1008.5
20260904124914 54 116 0.0 1.0 0.19 1.93 0.71 97 1008.5
20260904124517 54 301 0.0 2.0 0.18 1.92 0.70 96 1008.4
20260904124418 54 301 0.0 2.0 0.18 1.92 0.70 96 1008.4
20260904124021 54 309 0.0 2.0 0.18 1.92 0.70 97 1008.4
20260904123922 54 309 0.0 2.0 0.17 1.91 0.69 96 1008.3
20260904123525 54 190 0.0 2.0 0.18 1.91 0.69 97 1008.4
20260904123425 54 189 1.0 2.0 0.18 1.91 0.69 97 1008.4
20260904123025 54 301 0.0 3.0 0.17 1.90 0.68 97 1008.4
20260904122930 54 301 0.0 3.0 0.18 1.90 0.68 96 1008.4
20260904122529 54 302 1.0 3.0 0.18 1.89 0.67 97 1008.4
20260904122415 54 301 1.0 3.0 0.17 1.88 0.66 97 1008.4
20260904122013 54 251 0.0 2.0 0.15 1.86 0.64 97 1008.3
20260904121920 54 252 0.0 2.0 0.14 1.85 0.63 97 1008.3
20260904121520 54 292 0.0 2.0 0.11 1.82 0.60 96 1008.4
20260904121422 54 295 1.0 2.0 0.11 1.82 0.60 97 1008.3
20260904121025 54 73 0.0 2.0 0.09 1.80 0.58 97 1008.1
20260904120928 54 73 1.0 2.0 0.08 1.79 0.57 96 1008.1
20260904120531 54 288 0.0 2.0 0.07 1.78 0.56 96 1008.3
20260904120413 54 292 0.0 2.0 0.06 1.77 0.55 96 1008.3
20260904120027 54 306 0.0 2.0 0.06 1.83 0.55 96 1008.2
20260904115929 54 306 0.0 2.0 0.05 1.82 0.54 96 1008.2
20260904115530 54 287 0.0 1.0 0.05 1.82 0.54 96 1008.2
20260904115413 54 318 0.0 1.0 0.04 1.81 0.53 96 1008.2
20260904115015 54 333 0.0 1.0 0.05 1.81 0.53 97 1008.1
20260904114917 54 332 0.0 1.0 0.04 1.80 0.52 97 1008.1
20260904114551 54 337 0.0 1.0 0.04 1.80 0.52 96 1008.1
20260904114052 54 338 0.0 2.0 0.04 1.80 0.52 96 1008.0
20260904113518 54 345 0.0 2.0 0.04 1.79 0.51 97 1008.0
20260904113424 54 344 0.0 2.0 0.04 1.79 0.51 97 1008.0
20260904113024 54 321 0.0 1.0 0.04 1.78 0.50 97 1008.0
20260904112930 54 253 0.0 1.0 0.04 1.78 0.50 97 1008.0
20260904112526 54 253 0.0 1.0 0.03 1.77 0.49 96 1008.0
20260904112428 54 201 0.0 3.0 0.03 1.77 0.49 96 1007.9
20260904112030 54 202 0.0 3.0 0.03 1.77 0.49 96 1008.1
20260904111912 54 201 0.0 3.0 0.03 1.77 0.49 96 1008.0
20260904111516 54 327 0.0 2.0 0.03 1.77 0.49 96 1008.0
20260904111417 54 327 0.0 2.0 0.03 1.77 0.49 96 1008.0
20260904111020 54 292 0.0 2.0 0.03 1.77 0.49 96 1008.0
20260904110530 54 277 0.0 1.0 0.03 1.77 0.49 96 1007.9
20260904110430 54 277 0.0 1.0 0.03 1.77 0.49 96 1007.9
20260904110024 54 56 0.0 1.0 0.03 1.91 0.49 96 1008.0
20260904105926 54 66 0.0 1.0 0.03 1.91 0.49 96 1008.0
20260904105530 54 155 0.0 0.0 0.03 1.91 0.49 96 1008.0
20260904105431 54 155 0.0 0.0 0.03 1.91 0.49 96 1008.0
20260904105018 54 155 0.0 2.0 0.02 1.90 0.48 97 1008.0
20260904104918 54 154 0.0 2.0 0.02 1.90 0.48 97 1008.0
20260904104552 54 154 0.0 2.0 0.02 1.90 0.48 96 1008.0
20260904104021 54 85 0.0 1.0 0.01 1.89 0.47 97 1008.0
20260904103923 54 89 0.0 1.0 0.01 1.89 0.47 97 1007.9
20260904103530 54 91 0.0 1.0 0.01 1.89 0.47 97 1007.9
20260904103430 54 91 0.0 1.0 0.01 1.89 0.47 97 1007.9
20260904103029 54 290 0.0 1.0 0.00 1.88 0.46 96 1008.0
20260904102915 54 290 0.0 1.0 0.00 1.88 0.46 96 1008.0
20260904102516 54 290 0.0 0.0 0.00 1.88 0.46 96 1008.0
20260904102423 54 290 0.0 0.0 0.00 1.88 0.46 96 1008.0
20260904102025 54 291 0.0 0.0 0.02 1.88 0.46 96 1008.0
20260904101932 54 290 0.0 0.0 0.02 1.88 0.46 96 1008.1
20260904101532 54 290 0.0 0.0 0.02 1.88 0.46 96 1008.1
20260904101417 54 290 0.0 0.0 0.02 1.88 0.46 96 1008.0
20260904101021 54 291 0.0 0.0 0.02 1.88 0.46 96 1008.0
20260904100923 54 290 0.0 0.0 0.02 1.88 0.46 96 1008.0
20260904100526 54 290 0.0 0.0 0.02 1.88 0.46 96 1008.0
20260904100419 54 291 0.0 0.0 0.02 1.88 0.46 96 1008.1
20260904100015 54 291 0.0 0.0 0.02 1.88 0.46 96 1008.0
20260904095916 54 291 0.0 0.0 0.02 1.88 0.46 96 1008.0
20260904095520 54 290 0.0 0.0 0.02 1.88 0.46 96 1008.0
20260904095418 54 291 0.0 0.0 0.02 1.88 0.46 96 1008.0
20260904095023 54 291 0.0 0.0 0.02 1.88 0.46 96 1008.0
20260904094925 54 290 0.0 0.0 0.02 1.88 0.46 96 1008.0
20260904094532 54 290 0.0 0.0 0.02 1.88 0.46 96 1008.1
20260904094415 54 291 0.0 0.0 0.02 1.88 0.46 96 1008.1
20260904094021 54 291 0.0 0.0 0.02 1.88 0.46 96 1008.1
20260904093924 54 290 0.0 0.0 0.02 1.88 0.46 96 1008.0
20260904093530 54 290 0.0 0.0 0.02 1.88 0.46 96 1008.1
20260904093430 54 290 0.0 0.0 0.02 1.88 0.46 96 1008.1
20260904093032 54 291 0.0 1.0 0.02 1.88 0.46 96 1008.1
20260904092915 54 291 0.0 1.0 0.02 1.88 0.46 96 1008.1
20260904092517 54 290 0.0 1.0 0.02 1.88 0.46 96 1008.1
20260904092418 54 291 0.0 1.0 0.01 1.87 0.45 96 1008.2
20260904092021 54 291 0.0 0.0 0.00 1.86 0.44 96 1008.3
20260904091924 54 291 0.0 0.0 0.00 1.86 0.44 96 1008.2
20260904091526 54 291 0.0 0.0 0.00 1.86 0.44 96 1008.2
20260904091431 54 291 0.0 0.0 0.00 1.86 0.44 96 1008.2
20260904091029 54 291 0.0 1.0 0.00 1.86 0.44 96 1008.2
20260904090914 54 291 0.0 1.0 0.00 1.86 0.44 96 1008.2
20260904090518 54 291 0.0 1.0 0.00 1.86 0.44 96 1008.2
20260904090423 54 291 0.0 1.0 0.00 1.86 0.44 96 1008.2
20260904090033 54 291 0.0 1.0 0.00 1.86 0.44 96 1008.2
20260904085915 54 291 0.0 1.0 0.00 1.86 0.44 96 1008.1
20260904085518 54 21 0.0 1.0 0.00 1.86 0.44 96 1008.1
20260904085417 54 33 0.0 1.0 0.00 1.86 0.44 96 1008.1
20260904085019 54 33 0.0 1.0 0.00 1.86 0.44 96 1008.1
20260904084922 54 32 0.0 1.0 0.00 1.86 0.44 96 1008.1
20260904084525 54 119 0.0 1.0 0.01 1.86 0.44 96 1008.0
20260904084428 54 119 0.0 1.0 0.01 1.86 0.44 96 1008.1
20260904084030 54 119 0.0 1.0 0.02 1.86 0.44 96 1008.1
20260904083931 54 118 0.0 0.0 0.03 1.86 0.44 96 1008.1
20260904083534 54 118 0.0 1.0 0.04 1.86 0.44 96 1008.1
20260904083414 54 118 0.0 1.0 0.07 1.86 0.44 96 1008.1
20260904083018 54 118 0.0 2.0 0.07 1.86 0.44 96 1008.1
20260904082920 54 118 0.0 2.0 0.07 1.86 0.44 96 1008.1
20260904082523 54 291 0.0 2.0 0.09 1.86 0.44 96 1008.0
20260904082427 54 290 0.0 2.0 0.09 1.86 0.44 96 1008.1
20260904082029 54 293 0.0 0.0 0.12 1.86 0.44 96 1008.0
20260904081913 54 293 0.0 0.0 0.14 1.86 0.44 96 1008.0
20260904081517 54 293 0.0 1.0 0.23 1.86 0.44 96 1008.0
20260904081419 54 293 0.0 1.0 0.23 1.86 0.44 96 1008.0
20260904081022 55 293 0.0 1.0 0.30 1.86 0.44 96 1008.0
20260904080925 55 293 0.0 1.0 0.31 1.86 0.44 96 1008.1
20260904080530 55 271 0.0 2.0 0.41 1.86 0.44 96 1008.0
20260904080431 55 271 0.0 2.0 0.42 1.86 0.44 96 1008.0
20260904080024 55 270 1.0 2.0 0.44 1.86 0.44 96 1008.1
20260904075926 55 270 1.0 2.0 0.45 1.86 0.44 96 1008.1
20260904075524 55 348 0.0 3.0 0.46 1.86 0.44 96 1008.0
20260904075431 55 303 0.0 3.0 0.46 1.86 0.44 96 1008.0
20260904075029 55 250 0.0 3.0 0.46 1.86 0.44 96 1008.0
20260904074916 55 250 0.0 3.0 0.47 1.86 0.44 96 1008.0
20260904074516 55 291 0.0 3.0 0.46 1.85 0.43 96 1007.9
20260904074423 55 295 0.0 3.0 0.45 1.84 0.42 96 1007.9
20260904074021 55 167 0.0 1.0 0.45 1.83 0.41 96 1007.9
20260904073923 55 167 0.0 1.0 0.45 1.83 0.41 96 1007.9
20260904073527 55 300 0.0 1.0 0.44 1.81 0.39 96 1007.9
20260904073427 55 300 0.0 1.0 0.43 1.79 0.37 96 1008.0
20260904073029 55 310 0.0 1.0 0.44 1.79 0.37 96 1007.9
20260904072931 55 337 0.0 1.0 0.45 1.79 0.37 96 1007.9
20260904072530 55 337 0.0 1.0 0.45 1.77 0.35 96 1007.9
20260904072431 55 338 0.0 1.0 0.45 1.76 0.34 96 1007.9
20260904072031 55 339 0.0 1.0 0.44 1.73 0.31 96 1007.9
20260904071915 55 339 0.0 1.0 0.44 1.72 0.30 96 1007.8
20260904071517 55 256 0.0 1.0 0.40 1.63 0.21 96 1007.7
20260904071417 55 257 0.0 1.0 0.38 1.61 0.19 96 1007.8
20260904071019 55 257 0.0 1.0 0.33 1.55 0.13 96 1007.7
20260904070921 55 257 0.0 1.0 0.32 1.53 0.11 96 1007.7
20260904070527 55 257 0.0 1.0 0.25 1.44 0.02 96 1007.8
20260904070429 55 257 0.0 1.0 0.24 1.43 0.01 96 1007.7
20260904070025 55 257 0.0 1.0 0.23 1.41 1.41 96 1007.5
20260904065920 55 257 0.0 1.0 0.23 1.41 1.41 96 1007.5
20260904065522 55 257 0.0 1.0 0.23 1.40 1.40 96 1007.6
20260904065424 55 257 0.0 1.0 0.23 1.40 1.40 96 1007.5
20260904065026 55 257 0.0 2.0 0.23 1.39 1.39 96 1007.5
20260904064930 55 257 0.0 2.0 0.23 1.39 1.39 96 1007.5
20260904064528 55 276 0.0 2.0 0.24 1.39 1.39 96 1007.3
20260904064416 55 276 0.0 2.0 0.23 1.38 1.38 96 1007.4
20260904064015 55 249 0.0 1.0 0.23 1.38 1.38 96 1007.3
20260904063923 55 249 0.0 1.0 0.23 1.38 1.38 96 1007.3
20260904063523 55 293 0.0 1.0 0.21 1.36 1.36 96 1007.3
20260904063429 55 293 0.0 1.0 0.21 1.36 1.36 96 1007.3
20260904063026 55 62 0.0 1.0 0.19 1.34 1.34 96 1007.2
20260904062927 55 62 0.0 1.0 0.19 1.34 1.34 96 1007.3
20260904062530 55 62 0.0 3.0 0.16 1.31 1.31 96 1007.3
20260904062429 55 62 0.0 3.0 0.16 1.31 1.31 96 1007.2
20260904062031 55 63 1.0 3.0 0.13 1.28 1.29 96 1007.3
20260904061915 55 295 0.0 2.0 0.13 1.27 1.27 96 1007.4
20260904061519 55 285 0.0 1.0 0.09 1.23 1.23 96 1007.3
20260904061421 55 285 0.0 1.0 0.09 1.23 1.23 96 1007.3
20260904061023 55 269 0.0 1.0 0.07 1.21 1.21 96 1007.4
20260904060926 55 270 0.0 1.0 0.07 1.21 1.21 96 1007.4
20260904060530 55 270 0.0 1.0 0.05 1.19 1.19 96 1007.4
20260904060431 55 270 0.0 1.0 0.04 1.18 1.18 96 1007.3
20260904060026 55 268 0.0 1.0 0.04 1.18 1.18 96 1007.4
20260904055929 55 288 0.0 1.0 0.03 1.17 1.17 96 1007.4
20260904055528 55 288 0.0 1.0 0.03 1.17 1.17 96 1007.4
20260904055430 55 288 0.0 1.0 0.03 1.17 1.17 96 1007.4
20260904055030 55 288 0.0 1.0 0.02 1.16 1.16 96 1007.4
20260904054914 55 288 0.0 1.0 0.02 1.16 1.16 96 1007.4
20260904054515 55 289 0.0 1.0 0.01 1.15 1.15 96 1007.5
20260904054417 55 289 0.0 1.0 0.01 1.15 1.15 96 1007.5
20260904054020 55 289 0.0 1.0 0.01 1.15 1.15 96 1007.6
20260904053920 55 289 0.0 1.0 0.01 1.15 1.15 96 1007.6
20260904053522 55 289 0.0 1.0 0.01 1.15 1.15 96 1007.7
20260904053423 55 294 0.0 1.0 0.01 1.15 1.15 96 1007.6
20260904053027 55 294 0.0 1.0 0.01 1.15 1.15 96 1007.7
20260904052929 55 294 0.0 1.0 0.01 1.15 1.15 96 1007.7
20260904052513 55 293 0.0 1.0 0.01 1.15 1.15 95 1007.8
20260904052416 55 293 0.0 1.0 0.01 1.15 1.15 95 1007.8
20260904052013 55 293 0.0 1.0 0.01 1.15 1.15 95 1007.9
20260904051920 55 109 0.0 1.0 0.00 1.14 1.14 95 1007.9
20260904051520 55 110 0.0 1.0 0.00 1.14 1.14 95 1007.8
20260904051427 55 110 0.0 1.0 0.00 1.14 1.14 95 1007.8
20260904051027 55 290 0.0 1.0 0.01 1.14 1.14 95 1008.0
20260904050915 55 290 0.0 1.0 0.01 1.14 1.14 95 1007.9
20260904050517 55 290 0.0 1.0 0.02 1.14 1.14 95 1007.9
20260904050418 55 290 0.0 1.0 0.02 1.14 1.14 95 1008.0
20260904050013 55 290 0.0 1.0 0.02 1.14 1.14 95 1007.9
20260904045917 55 290 0.0 1.0 0.02 1.14 1.14 95 1008.0
20260904045520 55 290 0.0 1.0 0.02 1.14 1.14 95 1008.0
20260904045423 55 290 0.0 0.0 0.02 1.14 1.14 95 1008.0
20260904045029 55 290 0.0 0.0 0.02 1.14 1.14 95 1008.0
20260904044913 55 290 0.0 1.0 0.02 1.14 1.14 95 1007.9
20260904044521 55 290 0.0 1.0 0.02 1.14 1.14 95 1007.9
20260904044423 55 290 0.0 1.0 0.02 1.14 1.14 95 1007.9
20260904044028 55 290 0.0 1.0 0.02 1.14 1.14 95 1007.9
20260904043929 55 290 0.0 1.0 0.02 1.14 1.14 95 1008.0
20260904043532 55 290 0.0 1.0 0.02 1.14 1.14 95 1008.0
20260904043431 55 290 0.0 1.0 0.02 1.14 1.14 95 1008.0
20260904043013 56 290 0.0 0.0 0.02 1.14 1.14 95 1008.0
20260904042916 56 290 0.0 0.0 0.02 1.14 1.14 95 1008.1
20260904042521 56 290 0.0 1.0 0.02 1.14 1.14 95 1008.1
20260904042423 56 290 0.0 1.0 0.02 1.14 1.14 95 1008.1
20260904042028 56 290 0.0 1.0 0.02 1.14 1.14 95 1008.1
20260904041930 56 290 0.0 1.0 0.02 1.14 1.14 95 1008.1
20260904041532 56 290 0.0 1.0 0.02 1.14 1.14 95 1008.1
20260904041414 56 258 0.0 1.0 0.02 1.14 1.14 95 1008.1
20260904041018 56 253 0.0 1.0 0.02 1.13 1.13 95 1008.2
20260904040918 56 253 0.0 1.0 0.03 1.13 1.13 95 1008.2
20260904040553 56 253 0.0 2.0 0.02 1.12 1.12 95 1008.2
20260904040019 56 252 1.0 3.0 0.02 1.26 1.12 95 1008.2
20260904035920 56 345 0.0 3.0 0.02 1.26 1.12 95 1008.2
20260904035552 56 357 0.0 4.0 0.02 1.26 1.12 95 1008.3
20260904035022 56 324 1.0 4.0 0.02 1.26 1.12 95 1008.3
20260904034924 56 22 1.0 4.0 0.02 1.26 1.12 95 1008.3
20260904034525 56 20 0.0 2.0 0.02 1.26 1.12 95 1008.2
20260904034426 56 21 0.0 2.0 0.02 1.26 1.12 95 1008.2
20260904034026 56 20 1.0 2.0 0.02 1.26 1.12 95 1008.1
20260904033929 56 20 1.0 2.0 0.02 1.26 1.12 95 1008.2
20260904033516 56 353 0.0 2.0 0.02 1.26 1.12 95 1008.1
20260904033416 56 359 0.0 2.0 0.03 1.26 1.12 95 1008.1
20260904033019 56 57 0.0 3.0 0.04 1.26 1.12 95 1008.1
20260904032920 56 57 1.0 3.0 0.04 1.26 1.12 95 1008.1
20260904032515 56 311 1.0 3.0 0.06 1.26 1.12 95 1008.0
20260904032423 56 15 1.0 3.0 0.06 1.26 1.12 95 1008.0
20260904032020 56 334 1.0 6.0 0.12 1.26 1.12 95 1007.9
20260904031926 56 91 1.0 7.0 0.12 1.26 1.12 95 1007.9
20260904031524 56 88 2.0 9.0 0.12 1.26 1.12 94 1008.0
20260904031427 56 279 2.0 9.0 0.12 1.26 1.12 95 1008.1
20260904031029 56 67 2.0 9.0 0.19 1.25 1.11 95 1008.0
20260904030912 56 283 1.0 8.0 0.18 1.24 1.10 95 1008.0
20260904030515 56 323 2.0 8.0 0.21 1.24 1.10 95 1008.1
20260904030417 56 254 2.0 9.0 0.21 1.24 1.10 95 1008.1
20260904030029 56 43 2.0 9.0 0.22 1.25 1.10 95 1008.1
20260904025929 56 153 2.0 9.0 0.22 1.25 1.10 95 1008.1
20260904025529 56 280 2.0 8.0 0.25 1.25 1.10 95 1008.2
20260904025412 56 338 3.0 8.0 0.27 1.25 1.10 95 1008.1
20260904025014 56 39 3.0 6.0 0.28 1.25 1.10 95 1008.1
20260904024915 56 1 3.0 6.0 0.29 1.25 1.10 95 1008.1
20260904024518 56 318 1.0 4.0 0.31 1.25 1.10 95 1008.1
20260904024419 56 59 2.0 4.0 0.31 1.25 1.10 95 1008.1
20260904024022 56 287 1.0 6.0 0.35 1.25 1.10 95 1008.1
20260904023924 56 89 1.0 6.0 0.36 1.25 1.10 95 1008.1
20260904023526 56 266 2.0 6.0 0.51 1.25 1.10 95 1008.2
20260904023427 56 134 3.0 6.0 0.51 1.24 1.09 95 1008.2
20260904023029 56 267 1.0 3.0 0.52 1.23 1.08 95 1008.3
20260904022913 56 347 0.0 3.0 0.52 1.22 1.07 95 1008.4
20260904022516 56 60 1.0 3.0 0.52 1.21 1.06 95 1008.1
20260904022420 56 81 1.0 3.0 0.52 1.21 1.06 95 1008.1
20260904022023 56 31 0.0 2.0 0.46 1.15 1.00 95 1008.0
20260904021926 56 39 1.0 2.0 0.46 1.15 1.00 95 1008.1
20260904021528 56 13 0.0 3.0 0.46 1.15 1.00 94 1008.1
20260904021431 56 14 0.0 3.0 0.46 1.15 1.00 94 1008.2
20260904021013 56 296 1.0 10.0 0.38 1.07 0.92 94 1008.2
20260904020915 56 304 1.0 10.0 0.38 1.07 0.92 94 1008.2
20260904020515 56 309 3.0 10.0 0.35 1.04 0.89 94 1008.3
20260904020421 56 101 4.0 10.0 0.35 1.04 0.89 94 1008.3
20260904020030 56 353 1.0 7.0 0.34 1.03 0.88 94 1008.3
20260904015932 56 315 2.0 7.0 0.33 1.02 0.87 94 1008.4
20260904015532 56 311 1.0 7.0 0.29 0.98 0.83 94 1008.4
20260904015414 56 316 2.0 7.0 0.29 0.98 0.83 94 1008.4
20260904015015 56 16 2.0 8.0 0.28 0.97 0.82 93 1008.4
20260904014917 56 319 1.0 8.0 0.27 0.96 0.81 93 1008.5
20260904014517 56 91 3.0 8.0 0.26 0.94 0.79 92 1008.5
20260904014417 56 265 2.0 8.0 0.24 0.92 0.77 92 1008.5
20260904014016 57 175 3.0 8.0 0.21 0.89 0.74 92 1008.3
20260904013918 57 272 3.0 8.0 0.20 0.88 0.73 92 1008.2
20260904013523 57 217 1.0 7.0 0.05 0.73 0.58 92 1008.3
20260904013424 57 69 1.0 5.0 0.05 0.73 0.58 91 1008.3
20260904013026 57 355 2.0 5.0 0.03 0.71 0.56 91 1008.3
20260904012929 57 96 1.0 5.0 0.02 0.70 0.55 91 1008.3
20260904012531 58 72 2.0 6.0 0.01 0.69 0.54 91 1008.3
20260904012432 58 54 2.0 6.0 0.01 0.69 0.54 91 1008.3
20260904012031 58 315 2.0 8.0 0.01 0.69 0.54 90 1008.3
20260904011913 58 321 2.0 8.0 0.01 0.69 0.54 90 1008.4
20260904011515 58 72 2.0 8.0 0.01 0.69 0.54 89 1008.3
20260904011416 58 72 2.0 6.0 0.01 0.69 0.54 89 1008.3
20260904011015 58 111 1.0 6.0 0.01 0.69 0.54 90 1008.3
20260904010917 58 153 2.0 6.0 0.01 0.69 0.54 90 1008.2
20260904010521 58 50 3.0 6.0 0.01 0.69 0.54 89 1008.2
20260904010422 58 37 2.0 6.0 0.01 0.69 0.54 89 1008.3
20260904010032 58 123 2.0 6.0 0.01 0.69 0.54 90 1008.2
20260904005917 58 157 3.0 6.0 0.01 0.69 0.54 89 1008.3
20260904005515 58 158 2.0 7.0 0.01 0.69 0.54 89 1008.3
20260904005420 58 264 2.0 7.0 0.01 0.69 0.54 89 1008.3
20260904005021 58 300 3.0 8.0 0.01 0.69 0.54 88 1008.2
20260904004923 58 82 2.0 8.0 0.01 0.69 0.54 88 1008.4
20260904004527 58 332 1.0 8.0 0.00 0.68 0.53 88 1008.4
20260904004412 58 99 2.0 8.0 0.00 0.68 0.53 87 1008.4
20260904004014 58 259 3.0 9.0 0.00 0.68 0.53 87 1008.4
20260904003917 58 353 3.0 9.0 0.00 0.68 0.53 87 1008.3
20260904003531 58 150 3.0 9.0 0.00 0.68 0.53 88 1008.2
20260904003430 58 319 2.0 9.0 0.01 0.68 0.53 88 1008.4
20260904003031 58 306 4.0 8.0 0.01 0.68 0.53 89 1008.3
20260904002913 58 51 2.0 8.0 0.01 0.68 0.53 89 1008.4
20260904002519 58 89 2.0 7.0 0.02 0.68 0.53 90 1008.3
20260904002419 58 211 1.0 5.0 0.02 0.68 0.53 90 1008.3
20260904002022 58 113 2.0 6.0 0.02 0.68 0.53 91 1008.2
20260904001926 58 263 1.0 6.0 0.02 0.68 0.53 91 1008.3
20260904001528 58 91 2.0 6.0 0.02 0.68 0.53 90 1008.2
20260904001429 58 75 2.0 7.0 0.02 0.68 0.53 91 1008.3
20260904001031 58 179 1.0 7.0 0.02 0.68 0.53 91 1008.3
20260904000913 58 137 1.0 7.0 0.02 0.68 0.53 91 1008.3
20260904000519 58 32 2.0 7.0 0.02 0.68 0.53 90 1008.3
20260904000419 58 317 3.0 7.0 0.02 0.68 0.53 90 1008.3
20260904000033 58 47 2.0 7.0 0.02 0.68 0.53 91 1008.3
20260903235917 58 335 1.0 9.0 0.02 0.68 0.53 91 1008.3
20260903235521 58 282 1.0 9.0 0.02 0.68 0.53 91 1008.3
20260903235424 58 227 1.0 9.0 0.02 0.68 0.53 91 1008.3
20260903235026 58 160 3.0 9.0 0.02 0.68 0.53 90 1008.5
20260903234927 58 302 2.0 8.0 0.02 0.68 0.53 90 1008.4
20260903234524 58 43 2.0 8.0 0.02 0.68 0.53 90 1008.5
20260903234428 58 230 2.0 8.0 0.02 0.68 0.53 90 1008.5
20260903234026 58 96 2.0 9.0 0.02 0.68 0.53 90 1008.5
20260903233913 58 96 1.0 9.0 0.02 0.68 0.53 89 1008.5
20260903233515 58 82 4.0 9.0 0.01 0.67 0.52 89 1008.6
20260903233420 58 288 2.0 8.0 0.01 0.67 0.52 88 1008.6
20260903233019 59 210 2.0 16.0 0.01 0.67 0.52 87 1008.5
20260903232921 59 230 3.0 16.0 0.01 0.67 0.52 87 1008.5
20260903232522 59 96 4.0 16.0 0.00 0.66 0.51 87 1008.6
20260903232424 59 120 3.0 16.0 0.00 0.66 0.51 88 1008.7
20260903232025 59 314 5.0 13.0 0.00 0.66 0.51 87 1008.5
20260903231926 59 162 4.0 13.0 0.00 0.66 0.51 87 1008.6
20260903231530 59 33 4.0 9.0 0.00 0.66 0.51 87 1008.7
20260903231414 59 49 2.0 7.0 0.00 0.66 0.51 87 1008.7
20260903231017 59 272 3.0 14.0 0.00 0.66 0.51 87 1008.7
20260903230920 59 101 3.0 14.0 0.00 0.66 0.51 86 1008.7
20260903230523 59 221 2.0 14.0 0.00 0.66 0.51 86 1008.6
20260903230425 59 325 2.0 14.0 0.00 0.66 0.51 86 1008.6
20260903230017 60 239 2.0 12.0 0.00 0.68 0.51 88 1008.7
20260903225919 60 106 2.0 12.0 0.00 0.68 0.51 88 1008.7
20260903225525 59 262 2.0 12.0 0.00 0.68 0.51 87 1008.6
20260903225427 59 25 3.0 12.0 0.00 0.68 0.51 88 1008.8
20260903225029 59 345 3.0 9.0 0.00 0.68 0.51 88 1008.7
20260903224931 59 21 2.0 9.0 0.00 0.68 0.51 88 1008.8
20260903224533 59 300 3.0 10.0 0.00 0.68 0.51 88 1008.7
20260903224415 59 92 4.0 10.0 0.00 0.68 0.51 88 1008.7
20260903224017 59 28 3.0 11.0 0.00 0.68 0.51 89 1008.7
20260903223919 59 199 4.0 11.0 0.00 0.68 0.51 88 1008.7
20260903223522 59 207 4.0 11.0 0.00 0.68 0.51 88 1008.8
20260903223424 59 233 4.0 11.0 0.00 0.68 0.51 88 1008.6
20260903223027 59 203 2.0 7.0 0.00 0.68 0.51 89 1008.7
20260903222930 59 326 3.0 8.0 0.00 0.68 0.51 88 1008.8
20260903222515 59 109 2.0 12.0 0.00 0.68 0.51 89 1008.7
20260903222418 59 359 3.0 12.0 0.00 0.68 0.51 89 1008.8
20260903222015 59 316 3.0 12.0 0.00 0.68 0.51 90 1008.7
20260903221919 59 51 3.0 12.0 0.00 0.68 0.51 90 1008.7
20260903221517 59 63 3.0 12.0 0.00 0.68 0.51 90 1008.8
20260903221420 59 68 3.0 12.0 0.00 0.68 0.51 90 1008.8
20260903221019 59 54 2.0 9.0 0.00 0.68 0.51 91 1008.6
20260903220919 59 62 3.0 9.0 0.00 0.68 0.51 90 1008.9
20260903220523 59 339 3.0 9.0 0.00 0.68 0.51 90 1008.8
20260903220426 59 73 2.0 9.0 0.00 0.68 0.51 90 1008.8
20260903220023 59 224 3.0 9.0 0.00 0.69 0.51 90 1008.9
20260903215927 59 81 4.0 10.0 0.00 0.69 0.51 89 1008.8
20260903215528 59 290 1.0 10.0 0.00 0.69 0.51 90 1008.8
20260903215429 59 54 2.0 10.0 0.00 0.69 0.51 90 1008.8
20260903215030 60 192 3.0 10.0 0.00 0.69 0.51 89 1008.7
20260903214912 60 314 3.0 9.0 0.00 0.69 0.51 89 1008.8
20260903214514 60 113 2.0 13.0 0.00 0.69 0.51 89 1008.9
20260903214415 60 259 3.0 13.0 0.00 0.69 0.51 89 1008.9
20260903214019 60 97 2.0 13.0 0.00 0.69 0.51 89 1009.0
20260903213920 60 115 3.0 13.0 0.00 0.69 0.51 88 1009.0
20260903213525 60 263 3.0 8.0 0.00 0.69 0.51 89 1009.0
20260903213426 60 58 3.0 8.0 0.00 0.69 0.51 89 1008.9
20260903213031 60 289 3.0 12.0 0.00 0.69 0.51 88 1009.0
20260903212913 60 229 3.0 12.0 0.00 0.69 0.51 88 1009.0
20260903212517 60 92 2.0 9.0 0.01 0.69 0.51 89 1008.9
20260903212420 60 75 2.0 9.0 0.01 0.69 0.51 89 1008.9
20260903212023 60 176 1.0 9.0 0.01 0.69 0.51 89 1009.0
20260903211924 60 206 3.0 9.0 0.01 0.69 0.51 90 1008.9
20260903211527 60 349 1.0 8.0 0.01 0.69 0.51 90 1008.9
20260903211429 60 22 2.0 8.0 0.01 0.69 0.51 90 1008.8
20260903211026 60 53 1.0 8.0 0.01 0.69 0.51 90 1009.0
20260903210930 59 90 2.0 8.0 0.01 0.69 0.51 89 1008.9
20260903210532 60 359 2.0 7.0 0.01 0.69 0.51 89 1009.0
20260903210418 60 282 2.0 9.0 0.01 0.69 0.51 89 1009.1
20260903210017 60 302 3.0 11.0 0.01 0.82 0.51 89 1009.0
20260903205533 60 33 4.0 11.0 0.01 0.82 0.51 88 1008.9
20260903205414 60 328 4.0 11.0 0.01 0.82 0.51 89 1008.9
20260903205017 60 327 2.0 9.0 0.01 0.82 0.51 90 1009.0
20260903204919 60 167 2.0 9.0 0.01 0.82 0.51 90 1008.9
20260903204519 59 92 4.0 9.0 0.01 0.82 0.51 90 1008.9
20260903204419 59 144 3.0 9.0 0.01 0.82 0.51 90 1008.9
20260903204022 59 250 3.0 9.0 0.01 0.82 0.51 92 1009.0
20260903203926 59 87 4.0 9.0 0.01 0.82 0.51 92 1008.9
20260903203531 59 307 3.0 9.0 0.01 0.82 0.51 91 1009.0
20260903203429 59 282 2.0 9.0 0.01 0.82 0.51 91 1008.9
20260903203026 59 37 1.0 11.0 0.01 0.82 0.51 91 1008.9
20260903202927 59 269 1.0 11.0 0.01 0.82 0.51 91 1008.9
20260903202528 59 267 3.0 11.0 0.00 0.81 0.50 90 1008.9
20260903202429 59 321 4.0 11.0 0.00 0.81 0.50 90 1009.1
20260903202029 59 247 3.0 7.0 0.00 0.81 0.50 92 1008.8
20260903201928 59 302 2.0 5.0 0.00 0.81 0.50 93 1008.9
20260903201532 59 78 1.0 10.0 0.00 0.81 0.50 91 1009.1
20260903201414 58 302 2.0 10.0 0.00 0.81 0.50 91 1008.9
20260903201015 59 27 3.0 10.0 0.00 0.81 0.50 90 1009.0
20260903200936 59 351 3.0 10.0 0.00 0.81 0.50 91 1009.0
20260903200534 59 309 1.0 5.0 0.00 0.81 0.50 94 1009.1
20260903200417 58 293 2.0 7.0 0.00 0.81 0.50 94 1009.2
20260903200026 57 249 2.0 7.0 0.00 0.90 0.50 93 1009.2
20260903195928 57 276 1.0 7.0 0.00 0.90 0.50 93 1009.3